Regional Weather Roundup
Issued by NWS

Home | Current Version | Previous Version | Graphics & Text | Print | Product List | Glossary On
Versions: 1 2 3 4 5 6 7 8 9 10 11 12 13 14 15 16 17 18 19 20 21 22 23 24 25 26 27 28
000
ASUS45 KSLC 221710
RWRUT

UTAH REGIONAL WEATHER ROUNDUP
NATIONAL WEATHER SERVICE SALT LAKE CITY UT
1100 AM MDT MON MAY 22 2017

UTZ001>011-023>025-221800-

NORTHERN UTAH

CITY           SKY/WX    TMP DP  RH WIND       PRES   REMARKS
BRIGHAM CITY   SUNNY     63  48  57 CALM      30.27S
HILL AFB       SUNNY     61  45  55 CALM      30.27F
LOGAN          SUNNY     63  46  54 CALM      30.27F
OGDEN          SUNNY     64  45  49 VRB5      30.26F
SALT LAKE CITY MOSUNNY   67  46  47 N5        30.26F
TOOELE VALLEY  SUNNY     64  48  55 N3        30.28S
WENDOVER       SUNNY     67  40  37 VRB6      30.27F
HEBER CITY     SUNNY     55  43  62 W3        30.30F
WEST JORDAN    SUNNY     66  54  65 CALM      30.28S

$$

UTZ011>015-024>027-221800-

CENTRAL/NORTHEAST UTAH

CITY           SKY/WX    TMP DP  RH WIND       PRES   REMARKS
PROVO AIRPORT  SUNNY     59  46  62 SW6       30.29F
MOAB/CANYONLAN SUNNY     66  40  38 VRB3      30.21F
DELTA          SUNNY     63  37  39 E3        30.28F
PRICE          SUNNY     62  33  33 CALM      30.26F
RICHFIELD      SUNNY     61  39  44 NE5       30.31F
ROOSEVELT      SUNNY     63  36  36 S5        30.28F
VERNAL         SUNNY     61  41  47 S9        30.25F

$$

UTZ013>016-019>022-027-221800-

SOUTHERN UTAH

CITY           SKY/WX    TMP DP  RH WIND       PRES   REMARKS
BRYCE CANYON   SUNNY     58  33  39 N10G18    30.35S
CEDAR CITY     SUNNY     64  40  41 N9        30.28S
MILFORD        SUNNY     65  40  39 N12       30.28S
ST GEORGE      SUNNY     75  41  29 VRB3      30.15F
HANKSVILLE     SUNNY     64  36  34 CALM      30.25F
KANAB          SUNNY     72  34  25 NE9       30.26F
BLANDING       MOSUNNY   64  34  32 S6        30.31S

$$

REGIONAL REPORTS     COLORADO/ARIZONA

CITY           SKY/WX    TMP DP  RH WIND       PRES   REMARKS
CRAIG, CO      PTSUNNY   53  39  59 NW3       30.28F
GRAND JUNCTION SUNNY     63  39  41 NW9       30.22F
RIFLE, CO      MOSUNNY   60  31  33 NW5       30.23F
MONTROSE, CO   SUNNY     57  40  52 VRB3      30.26F
CORTEZ, CO     SUNNY     64  37  36 N16G22    30.21R
COLORADO CITY    N/A     73  34  23 NE3       30.26S
PAGE, AZ       SUNNY     69  37  30 VRB3      30.21S
GRAND CANYON   SUNNY     66  34  30 E7        30.30S
KINGMAN, AZ    SUNNY     84  35  17 N12G22    30.10R
FLAGSTAFF, AZ  SUNNY     64  33  31 E9G18     30.28F

$$

REGIONAL REPORTS    NEVADA/IDAHO/WYOMING

CITY           SKY/WX    TMP DP  RH WIND       PRES   REMARKS
LAS VEGAS, NV  MOSUNNY   85  34  16 NE14G22   30.07S
ELY, NY        MOSUNNY   60  33  36 VRB5      30.33S
ELKO, NV       SUNNY     63  36  36 CALM      30.29F
POCATELLO, ID  MOSUNNY   63  42  46 VRB3      30.27F
BURLEY, ID     SUNNY     66  48  52 VRB5      30.24S
FORT BRIDGER,    N/A     58  29  33 NW9       30.34F
EVANSTON, WY   SUNNY     56  34  43 N6        30.33F
ROCK SPRINGS,  SUNNY     54  39  57 W18G25    30.27F
KEMMERER, WY     N/A     54  27  35 NW18G25   30.33S

$$




USA.gov is the U.S. government's official web portal to all federal, state and local government web resources and services.